This demonstration page uses our WeatherBlox Daily Observations layout. Learn more.

Left ArrowRight Arrow

Hourly Observations for March 17, 2019

Temp ( °F °C ) Dew Point ( °F °C ) Humidity (%) Winds ( mph kmh ) Pressure ( in mb ) Visibility ( mi km ) Precip ( " mm )
12:51 am 00:51 Clear 43 6.1 38 3.3 82 82 SE 9 15 30.20 1023 10 16 N/A
1:51 am 01:51 Clear 43 6.1 37 2.8 80 80 SE 9 15 30.19 1022 10 16 N/A
2:51 am 02:51 Clear 43 6.1 37 2.8 80 80 SE 13 20 30.17 1022 10 16 N/A
3:51 am 03:51 Clear 41 5 37 2.8 86 86 SE 8 13 30.16 1021 10 16 N/A
4:51 am 04:51 Clear 41 5 36 2.2 82 82 SE 6 9 30.18 1022 10 16 N/A
5:51 am 05:51 Clear 39 3.9 36 2.2 89 89 ESE 7 11 30.19 1022 10 16 N/A
6:51 am 06:51 Sunny 39 3.9 36 2.2 89 89 ESE 8 13 30.21 1023 10 16 N/A
7:51 am 07:51 Sunny 44 6.7 37 2.8 76 76 ESE 9 15 30.22 1024 10 16 N/A
8:51 am 08:51 Sunny 48 8.9 37 2.8 66 66 SE 12 19 30.23 1024 10 16 N/A
9:51 am 09:51 Sunny 52 11.1 37 2.8 57 57 S 9 15 30.22 1023 10 16 N/A
10:51 am 10:51 Sunny 57 13.9 35 1.7 44 44 SE 13 20 30.19 1022 10 16 N/A
11:51 am 11:51 Sunny 62 16.7 33 0.6 34 34 SSE 12 19 30.14 1021 10 16 N/A
12:51 pm 12:51 Sunny 64 17.8 33 0.6 32 32 SSE 13 20 30.10 1019 10 16 N/A
1:51 pm 13:51 Sunny 66 18.9 32 undefined 28 28 SE 14 22 30.05 1018 10 16 N/A
2:51 pm 14:51 Sunny 68 20 32 undefined 26 26 ESE 12 19 30.02 1017 10 16 N/A
3:51 pm 15:51 Sunny 68 20 32 undefined 26 26 SE 7 11 30.00 1016 10 16 N/A
4:51 pm 16:51 Sunny 68 20 33 0.6 27 27 ESE 7 11 29.98 1015 10 16 N/A
5:51 pm 17:51 Sunny 67 19.4 33 0.6 28 28 SSE 8 13 29.99 1016 10 16 N/A
6:51 pm 18:51 Clear 61 16.1 36 2.2 39 39 SE 7 11 30.01 1016 10 16 N/A
7:51 pm 19:51 Clear 59 15 37 2.8 44 44 E 8 13 30.01 1016 10 16 N/A
8:51 pm 20:51 Clear 56 13.3 37 2.8 49 49 E 6 9 30.03 1017 10 16 N/A
9:51 pm 21:51 Clear 53 11.7 38 3.3 57 57 S 7 11 30.04 1017 10 16 N/A
10:51 pm 22:51 Clear 54 12.2 37 2.8 53 53 S 8 13 30.04 1017 10 16 N/A
11:51 pm 23:51 Clear 50 10 37 2.8 61 61 SE 7 11 30.04 1017 10 16 N/A

Powered by AerisWeather